User: anonymous   Login
Location: Nebula Knoll Observatory
(43.6666°N, 71.0000°W)
Time: 13:01:17
(UTC-04:00)
Language:

SeaSat 1 - Orbit

View from above orbital plane
View from above orbital plane
View from above satellite
View from above satellite

Ground track
Ground track

The orbit data is extracted from the following two-line orbital elements,

1 10967U 78064A   16182.31551701 -.00000012  00000-0  36845-4 0  9993
2 10967 108.0003 284.2876 0001242 230.6743 129.4291 14.43557844995824
Epoch (UTC): 30 June 2016 07:34:20
Eccentricity: 0.0001242
inclination: 108.0003°
perigee height: 746 km
apogee height: 747 km
right ascension of ascending node: 284.2876°
argument of perigee: 230.6743°
revolutions per day: 14.43557844
mean anomaly at epoch: 129.4291°
orbit number at epoch: 99582

The dashed part of the orbit path shows where the satellite is in the earth's shadow,  

DLR